Time,TemperatureF,DewpointF,PressureIn,WindDirection,WindDirectionDegrees,WindSpeedMPH,WindSpeedGustMPH,Humidity,HourlyPrecipIn,Conditions,Clouds,dailyrainin,SoftwareType,DateUTC
2013-03-03 00:05:00,34.6,26.6,29.59,NNW,343,3.4,6.0,73,-99.99,,,-99.99,PWS SA v1.10,2013-03-03 05:05:00,
2013-03-03 00:10:00,34.5,27.2,29.59,North,0,0.0,3.0,75,-99.99,,,-99.99,PWS SA v1.10,2013-03-03 05:10:00,
2013-03-03 00:15:00,34.5,27.5,29.59,North,0,0.0,3.0,77,-99.99,,,-99.99,PWS SA v1.10,2013-03-03 05:15:00,
2013-03-03 00:20:00,34.4,26.8,29.59,North,0,0.0,1.0,74,-99.99,,,-99.99,PWS SA v1.10,2013-03-03 05:20:00,
2013-03-03 00:25:00,34.4,27.0,29.60,NNW,337,3.4,3.4,75,-99.99,,,-99.99,PWS SA v1.10,2013-03-03 05:25:00,
2013-03-03 00:30:00,34.4,26.7,29.59,North,0,0.0,3.0,74,-99.99,,,-99.99,PWS SA v1.10,2013-03-03 05:30:00,
2013-03-03 00:35:00,34.5,27.2,29.59,North,0,0.0,3.0,75,-99.99,,,-99.99,PWS SA v1.10,2013-03-03 05:35:00,
2013-03-03 00:40:00,34.3,26.6,29.60,North,0,0.0,3.0,74,-99.99,,,-99.99,PWS SA v1.10,2013-03-03 05:40:00,
2013-03-03 00:45:00,34.3,27.8,29.60,North,0,0.0,3.0,78,-99.99,,,-99.99,PWS SA v1.10,2013-03-03 05:45:00,
2013-03-03 00:50:00,34.3,27.3,29.60,NNW,347,1.7,6.0,76,-99.99,,,-99.99,PWS SA v1.10,2013-03-03 05:50:00,
2013-03-03 00:55:00,34.3,26.9,29.60,NW,319,1.7,6.0,74,-99.99,,,-99.99,PWS SA v1.10,2013-03-03 05:55:00,
2013-03-03 01:00:00,34.3,27.6,29.60,North,0,0.0,6.0,77,-99.99,,,-99.99,PWS SA v1.10,2013-03-03 06:00:00,
2013-03-03 01:05:00,34.3,27.3,29.60,North,0,0.0,5.0,76,-99.99,,,-99.99,PWS SA v1.10,2013-03-03 06:05:00,
2013-03-03 01:10:00,34.3,26.8,29.59,NNW,330,1.7,1.7,74,-99.99,,,-99.99,PWS SA v1.10,2013-03-03 06:10:00,
2013-03-03 01:15:00,34.2,27.2,29.59,North,0,0.0,1.0,75,-99.99,,,-99.99,PWS SA v1.10,2013-03-03 06:15:00,
2013-03-03 01:20:00,34.4,26.8,29.60,North,0,0.0,1.0,74,-99.99,,,-99.99,PWS SA v1.10,2013-03-03 06:20:00,
2013-03-03 01:25:00,34.5,27.3,29.59,North,0,0.0,1.0,75,-99.99,,,-99.99,PWS SA v1.10,2013-03-03 06:25:00,
2013-03-03 01:30:00,34.3,27.2,29.60,NNW,333,1.7,1.7,74,-99.99,,,-99.99,PWS SA v1.10,2013-03-03 06:30:00,
2013-03-03 01:35:00,34.4,26.9,29.59,WNW,303,1.7,5.0,74,-99.99,,,-99.99,PWS SA v1.10,2013-03-03 06:35:00,
2013-03-03 01:40:00,34.2,28.1,29.59,North,0,0.0,5.0,77,-99.99,,,-99.99,PWS SA v1.10,2013-03-03 06:40:00,
2013-03-03 01:45:00,34.4,27.6,29.59,North,0,0.0,5.0,76,-99.99,,,-99.99,PWS SA v1.10,2013-03-03 06:45:00,
2013-03-03 01:50:00,34.4,27.9,29.59,North,0,0.0,1.0,76,-99.99,,,-99.99,PWS SA v1.10,2013-03-03 06:50:00,
2013-03-03 01:55:00,34.2,27.7,29.59,North,0,0.0,3.0,76,-99.99,,,-99.99,PWS SA v1.10,2013-03-03 06:55:00,
2013-03-03 02:00:00,34.3,27.9,29.58,North,0,0.0,3.0,77,-99.99,,,-99.99,PWS SA v1.10,2013-03-03 07:00:00,
2013-03-03 02:05:00,34.2,27.4,29.58,North,0,0.0,3.0,75,-99.99,,,-99.99,PWS SA v1.10,2013-03-03 07:05:00,
2013-03-03 02:10:00,34.6,27.7,29.58,North,0,0.0,3.0,75,-99.99,,,-99.99,PWS SA v1.10,2013-03-03 07:10:00,
2013-03-03 02:15:00,34.2,26.9,29.58,North,0,0.0,3.0,73,-99.99,,,-99.99,PWS SA v1.10,2013-03-03 07:15:00,
2013-03-03 02:20:00,34.4,28.4,29.58,North,0,0.0,1.0,78,-99.99,,,-99.99,PWS SA v1.10,2013-03-03 07:20:00,
2013-03-03 02:25:00,34.3,28.2,29.58,North,0,0.0,1.0,78,-99.99,,,-99.99,PWS SA v1.10,2013-03-03 07:25:00,
2013-03-03 02:30:00,34.1,27.2,29.59,North,0,0.0,1.0,74,-99.99,,,-99.99,PWS SA v1.10,2013-03-03 07:30:00,
2013-03-03 02:35:00,34.3,28.4,29.58,WNW,302,1.7,1.7,78,-99.99,,,-99.99,PWS SA v1.10,2013-03-03 07:35:00,
2013-03-03 02:40:00,34.2,27.9,29.57,North,0,0.0,1.0,77,-99.99,,,-99.99,PWS SA v1.10,2013-03-03 07:40:00,
2013-03-03 02:45:00,34.5,27.9,29.58,NNW,331,3.4,3.4,76,-99.99,,,-99.99,PWS SA v1.10,2013-03-03 07:45:00,
2013-03-03 02:50:00,34.5,27.9,29.58,North,0,0.0,3.0,76,-99.99,,,-99.99,PWS SA v1.10,2013-03-03 07:50:00,
2013-03-03 02:55:00,34.1,27.0,29.58,North,0,0.0,3.0,74,-99.99,,,-99.99,PWS SA v1.10,2013-03-03 07:55:00,
2013-03-03 03:00:00,34.5,27.5,29.57,North,0,0.0,1.0,74,-99.99,,,-99.99,PWS SA v1.10,2013-03-03 08:00:00,
2013-03-03 03:05:00,34.3,27.2,29.57,North,0,0.0,3.0,74,-99.99,,,-99.99,PWS SA v1.10,2013-03-03 08:05:00,
2013-03-03 03:10:00,34.3,27.1,29.58,NW,319,1.7,3.0,73,-99.99,,,-99.99,PWS SA v1.10,2013-03-03 08:10:00,
2013-03-03 03:15:00,34.3,27.8,29.58,North,0,0.0,3.0,76,-99.99,,,-99.99,PWS SA v1.10,2013-03-03 08:15:00,
2013-03-03 03:20:00,34.1,27.0,29.57,NE,49,1.7,1.7,74,-99.99,,,-99.99,PWS SA v1.10,2013-03-03 08:20:00,
2013-03-03 03:25:00,34.3,27.8,29.58,North,0,0.0,1.0,76,-99.99,,,-99.99,PWS SA v1.10,2013-03-03 08:25:00,
2013-03-03 03:35:00,34.2,27.0,29.57,North,0,0.0,3.0,73,-99.99,,,-99.99,PWS SA v1.10,2013-03-03 08:35:00,
2013-03-03 03:40:00,34.4,27.4,29.57,NW,315,1.7,3.0,74,-99.99,,,-99.99,PWS SA v1.10,2013-03-03 08:40:00,
2013-03-03 03:45:00,34.2,27.3,29.57,North,0,0.0,3.0,74,-99.99,,,-99.99,PWS SA v1.10,2013-03-03 08:45:00,
2013-03-03 03:50:00,34.4,28.2,29.57,North,0,0.0,1.0,76,-99.99,,,-99.99,PWS SA v1.10,2013-03-03 08:50:00,
2013-03-03 03:55:00,34.3,27.3,29.58,North,0,0.0,1.0,74,-99.99,,,-99.99,PWS SA v1.10,2013-03-03 08:55:00,
2013-03-03 04:00:00,34.5,28.2,29.58,NW,313,1.7,1.7,76,-99.99,,,-99.99,PWS SA v1.10,2013-03-03 09:00:00,
2013-03-03 04:05:00,34.5,27.8,29.57,North,0,0.0,1.0,75,-99.99,,,-99.99,PWS SA v1.10,2013-03-03 09:05:00,
2013-03-03 04:10:00,34.7,28.0,29.57,North,0,0.0,1.0,76,-99.99,,,-99.99,PWS SA v1.10,2013-03-03 09:10:00,
2013-03-03 04:15:00,34.6,28.5,29.57,North,0,0.0,0.0,77,-99.99,,,-99.99,PWS SA v1.10,2013-03-03 09:15:00,
2013-03-03 04:20:00,34.7,28.7,29.57,North,0,0.0,0.0,77,-99.99,,,-99.99,PWS SA v1.10,2013-03-03 09:20:00,
2013-03-03 04:25:00,34.6,27.5,29.57,North,0,0.0,0.0,74,-99.99,,,-99.99,PWS SA v1.10,2013-03-03 09:25:00,
2013-03-03 04:30:00,34.7,28.0,29.57,North,0,0.0,0.0,76,-99.99,,,-99.99,PWS SA v1.10,2013-03-03 09:30:00,
2013-03-03 04:35:00,34.5,28.0,29.57,North,0,0.0,0.0,75,-99.99,,,-99.99,PWS SA v1.10,2013-03-03 09:35:00,
2013-03-03 04:45:00,34.6,27.8,29.57,NNW,337,1.7,1.7,74,-99.99,,,-99.99,PWS SA v1.10,2013-03-03 09:45:00,
2013-03-03 04:50:00,34.4,28.0,29.57,North,0,0.0,1.0,75,-99.99,,,-99.99,PWS SA v1.10,2013-03-03 09:50:00,
2013-03-03 04:55:00,34.3,28.0,29.57,North,0,0.0,1.0,76,-99.99,,,-99.99,PWS SA v1.10,2013-03-03 09:55:00,
2013-03-03 05:00:00,34.6,29.4,29.57,North,0,0.0,0.0,80,-99.99,,,-99.99,PWS SA v1.10,2013-03-03 10:00:00,
2013-03-03 05:05:00,34.3,29.1,29.58,North,0,0.0,0.0,79,-99.99,,,-99.99,PWS SA v1.10,2013-03-03 10:05:00,
2013-03-03 05:10:00,34.3,28.4,29.58,North,0,0.0,0.0,77,-99.99,,,-99.99,PWS SA v1.10,2013-03-03 10:10:00,
2013-03-03 05:15:00,34.5,28.5,29.57,North,0,0.0,0.0,77,-99.99,,,-99.99,PWS SA v1.10,2013-03-03 10:15:00,
2013-03-03 05:20:00,34.1,28.3,29.57,North,0,0.0,0.0,77,-99.99,,,-99.99,PWS SA v1.10,2013-03-03 10:20:00,
2013-03-03 05:25:00,34.3,28.6,29.58,North,0,0.0,0.0,78,-99.99,,,-99.99,PWS SA v1.10,2013-03-03 10:25:00,
2013-03-03 05:30:00,34.1,27.6,29.58,North,0,0.0,0.0,75,-99.99,,,-99.99,PWS SA v1.10,2013-03-03 10:30:00,
2013-03-03 05:35:00,34.3,27.9,29.57,North,0,0.0,1.0,76,-99.99,,,-99.99,PWS SA v1.10,2013-03-03 10:35:00,
2013-03-03 05:40:00,34.5,29.0,29.58,North,0,0.0,1.0,78,-99.99,,,-99.99,PWS SA v1.10,2013-03-03 10:40:00,
2013-03-03 05:45:00,34.4,28.2,29.58,North,0,0.0,1.0,77,-99.99,,,-99.99,PWS SA v1.10,2013-03-03 10:45:00,
2013-03-03 05:50:00,34.3,29.1,29.58,North,0,0.0,0.0,79,-99.99,,,-99.99,PWS SA v1.10,2013-03-03 10:50:00,
2013-03-03 05:55:00,34.4,29.4,29.58,North,0,0.0,0.0,81,-99.99,,,-99.99,PWS SA v1.10,2013-03-03 10:55:00,
2013-03-03 06:00:00,34.2,28.7,29.58,North,0,0.0,0.0,77,-99.99,,,-99.99,PWS SA v1.10,2013-03-03 11:00:00,
2013-03-03 06:05:00,34.4,28.1,29.58,North,0,0.0,0.0,76,-99.99,,,-99.99,PWS SA v1.10,2013-03-03 11:05:00,
2013-03-03 06:10:00,34.6,28.6,29.59,North,0,0.0,1.0,78,-99.99,,,-99.99,PWS SA v1.10,2013-03-03 11:10:00,
2013-03-03 06:15:00,34.6,28.8,29.58,North,0,0.0,1.0,78,-99.99,,,-99.99,PWS SA v1.10,2013-03-03 11:15:00,
2013-03-03 06:20:00,34.5,28.8,29.58,North,0,0.0,1.0,78,-99.99,,,-99.99,PWS SA v1.10,2013-03-03 11:20:00,
2013-03-03 06:25:00,34.5,28.8,29.58,North,0,0.0,3.0,79,-99.99,,,-99.99,PWS SA v1.10,2013-03-03 11:25:00,
2013-03-03 06:30:00,34.4,28.7,29.58,North,0,0.0,3.0,78,-99.99,,,-99.99,PWS SA v1.10,2013-03-03 11:30:00,
2013-03-03 06:35:00,34.3,28.3,29.59,North,0,0.0,3.0,77,-99.99,,,-99.99,PWS SA v1.10,2013-03-03 11:35:00,
2013-03-03 06:40:00,34.4,28.4,29.58,North,0,0.0,3.0,78,-99.99,,,-99.99,PWS SA v1.10,2013-03-03 11:40:00,
2013-03-03 06:45:00,34.3,28.1,29.58,North,0,0.0,1.0,77,-99.99,,,-99.99,PWS SA v1.10,2013-03-03 11:45:00,
2013-03-03 06:50:00,34.4,27.8,29.58,North,0,0.0,1.0,76,-99.99,,,-99.99,PWS SA v1.10,2013-03-03 11:50:00,
2013-03-03 06:55:00,34.5,28.9,29.58,North,0,0.0,1.0,79,-99.99,,,-99.99,PWS SA v1.10,2013-03-03 11:55:00,
2013-03-03 07:00:00,34.3,28.5,29.58,North,0,0.0,1.0,77,-99.99,,,-99.99,PWS SA v1.10,2013-03-03 12:00:00,
2013-03-03 07:05:00,34.5,28.0,29.58,North,0,0.0,1.0,76,-99.99,,,-99.99,PWS SA v1.10,2013-03-03 12:05:00,
2013-03-03 07:10:00,34.5,28.5,29.59,North,0,0.0,1.0,77,-99.99,,,-99.99,PWS SA v1.10,2013-03-03 12:10:00,
2013-03-03 07:15:00,34.5,28.8,29.59,WSW,250,1.7,1.7,78,-99.99,,,-99.99,PWS SA v1.10,2013-03-03 12:15:00,
2013-03-03 07:20:00,34.7,28.5,29.59,North,0,0.0,5.0,77,-99.99,,,-99.99,PWS SA v1.10,2013-03-03 12:20:00,
2013-03-03 07:25:00,34.9,28.7,29.58,North,0,0.0,5.0,77,-99.99,,,-99.99,PWS SA v1.10,2013-03-03 12:25:00,
2013-03-03 07:30:00,34.9,28.9,29.58,North,0,0.0,5.0,78,-99.99,,,-99.99,PWS SA v1.10,2013-03-03 12:30:00,
2013-03-03 07:35:00,35.0,28.0,29.59,North,0,0.0,1.0,74,-99.99,,,-99.99,PWS SA v1.10,2013-03-03 12:35:00,
2013-03-03 07:40:00,34.8,27.6,29.59,NNW,338,5.1,5.1,74,-99.99,,,-99.99,PWS SA v1.10,2013-03-03 12:40:00,
2013-03-03 07:45:00,34.9,28.1,29.59,North,0,0.0,5.0,75,-99.99,,,-99.99,PWS SA v1.10,2013-03-03 12:45:00,
2013-03-03 07:50:00,35.3,28.7,29.59,North,0,0.0,5.0,76,-99.99,,,-99.99,PWS SA v1.10,2013-03-03 12:50:00,
2013-03-03 07:55:00,35.2,27.6,29.58,WNW,291,3.4,3.4,72,-99.99,,,-99.99,PWS SA v1.10,2013-03-03 12:55:00,
2013-03-03 08:00:00,35.6,28.4,29.58,NNW,340,1.7,3.0,74,-99.99,,,-99.99,PWS SA v1.10,2013-03-03 13:00:00,
2013-03-03 08:05:00,35.5,28.3,29.59,North,0,0.0,3.0,74,-99.99,,,-99.99,PWS SA v1.10,2013-03-03 13:05:00,
2013-03-03 08:15:00,35.7,27.7,29.58,North,0,0.0,3.0,71,-99.99,,,-99.99,PWS SA v1.10,2013-03-03 13:15:00,
2013-03-03 08:25:00,36.2,28.8,29.58,North,0,0.0,3.0,73,-99.99,,,-99.99,PWS SA v1.10,2013-03-03 13:25:00,
2013-03-03 08:30:00,35.8,27.8,29.58,North,0,0.0,5.0,70,-99.99,,,-99.99,PWS SA v1.10,2013-03-03 13:30:00,
2013-03-03 08:35:00,36.5,28.8,29.58,North,0,0.0,5.0,72,-99.99,,,-99.99,PWS SA v1.10,2013-03-03 13:35:00,
2013-03-03 08:40:00,36.3,28.7,29.58,North,0,0.0,5.0,72,-99.99,,,-99.99,PWS SA v1.10,2013-03-03 13:40:00,
2013-03-03 08:50:00,35.8,27.4,29.58,North,0,0.0,3.0,70,-99.99,,,-99.99,PWS SA v1.10,2013-03-03 13:50:00,
2013-03-03 08:55:00,35.5,27.8,29.58,WNW,303,3.4,3.4,72,-99.99,,,-99.99,PWS SA v1.10,2013-03-03 13:55:00,
2013-03-03 09:00:00,35.4,28.3,29.58,NW,306,1.7,3.0,75,-99.99,,,-99.99,PWS SA v1.10,2013-03-03 14:00:00,
2013-03-03 09:05:00,35.4,28.3,29.58,North,0,0.0,3.0,75,-99.99,,,-99.99,PWS SA v1.10,2013-03-03 14:05:00,
2013-03-03 09:15:00,35.7,27.3,29.58,North,0,0.0,1.0,72,-99.99,,,-99.99,PWS SA v1.10,2013-03-03 14:15:00,
2013-03-03 09:20:00,35.9,27.6,29.57,North,0,0.0,1.0,72,-99.99,,,-99.99,PWS SA v1.10,2013-03-03 14:20:00,
2013-03-03 09:25:00,36.1,27.5,29.58,North,0,0.0,3.0,72,-99.99,,,-99.99,PWS SA v1.10,2013-03-03 14:25:00,
2013-03-03 09:35:00,36.6,27.9,29.57,North,7,1.7,6.0,71,-99.99,,,-99.99,PWS SA v1.10,2013-03-03 14:35:00,
2013-03-03 09:40:00,36.8,27.7,29.57,North,0,0.0,6.0,70,-99.99,,,-99.99,PWS SA v1.10,2013-03-03 14:40:00,
2013-03-03 09:45:00,37.1,28.3,29.57,North,0,0.0,6.0,71,-99.99,,,-99.99,PWS SA v1.10,2013-03-03 14:45:00,
2013-03-03 09:50:00,37.1,28.2,29.57,NNE,20,1.7,5.0,70,-99.99,,,-99.99,PWS SA v1.10,2013-03-03 14:50:00,
2013-03-03 09:55:00,37.0,28.1,29.57,West,269,1.7,5.0,70,-99.99,,,-99.99,PWS SA v1.10,2013-03-03 14:55:00,
2013-03-03 10:00:00,37.2,27.7,29.56,WNW,302,3.4,5.0,69,-99.99,,,-99.99,PWS SA v1.10,2013-03-03 15:00:00,
2013-03-03 10:05:00,36.8,28.5,29.57,North,0,0.0,5.0,72,-99.99,,,-99.99,PWS SA v1.10,2013-03-03 15:05:00,
2013-03-03 10:15:00,37.4,28.4,29.57,North,0,0.0,1.0,70,-99.99,,,-99.99,PWS SA v1.10,2013-03-03 15:15:00,
2013-03-03 10:20:00,37.5,28.6,29.57,North,0,0.0,5.0,71,-99.99,,,-99.99,PWS SA v1.10,2013-03-03 15:20:00,
2013-03-03 10:25:00,37.7,28.3,29.56,NW,325,1.7,5.0,69,-99.99,,,-99.99,PWS SA v1.10,2013-03-03 15:25:00,
2013-03-03 10:30:00,37.5,28.4,29.56,North,0,0.0,5.0,70,-99.99,,,-99.99,PWS SA v1.10,2013-03-03 15:30:00,
2013-03-03 10:35:00,38.3,29.1,29.56,WNW,299,1.7,3.0,70,-99.99,,,-99.99,PWS SA v1.10,2013-03-03 15:35:00,
2013-03-03 10:40:00,38.1,29.0,29.56,North,0,0.0,3.0,70,-99.99,,,-99.99,PWS SA v1.10,2013-03-03 15:40:00,
2013-03-03 10:45:00,38.6,28.3,29.56,North,0,0.0,5.0,67,-99.99,,,-99.99,PWS SA v1.10,2013-03-03 15:45:00,
2013-03-03 10:50:00,38.9,29.4,29.56,North,0,0.0,5.0,69,-99.99,,,-99.99,PWS SA v1.10,2013-03-03 15:50:00,
2013-03-03 10:55:00,38.9,29.4,29.56,WNW,282,1.7,5.0,69,-99.99,,,-99.99,PWS SA v1.10,2013-03-03 15:55:00,
2013-03-03 11:00:00,38.5,28.4,29.55,North,0,0.0,3.0,67,-99.99,,,-99.99,PWS SA v1.10,2013-03-03 16:00:00,
2013-03-03 11:05:00,39.1,29.1,29.56,North,0,0.0,5.0,67,-99.99,,,-99.99,PWS SA v1.10,2013-03-03 16:05:00,
2013-03-03 11:10:00,40.0,29.4,29.55,North,0,0.0,6.0,66,-99.99,,,-99.99,PWS SA v1.10,2013-03-03 16:10:00,
2013-03-03 11:15:00,39.7,29.3,29.55,NNW,337,3.4,6.0,66,-99.99,,,-99.99,PWS SA v1.10,2013-03-03 16:15:00,
2013-03-03 11:20:00,39.4,29.6,29.55,North,0,0.0,6.0,68,-99.99,,,-99.99,PWS SA v1.10,2013-03-03 16:20:00,
2013-03-03 11:25:00,40.2,30.1,29.55,WNW,286,1.7,3.0,67,-99.99,,,-99.99,PWS SA v1.10,2013-03-03 16:25:00,
2013-03-03 11:30:00,40.6,29.6,29.55,North,0,0.0,3.0,65,-99.99,,,-99.99,PWS SA v1.10,2013-03-03 16:30:00,
2013-03-03 11:35:00,40.8,29.9,29.55,North,0,0.0,3.0,65,-99.99,,,-99.99,PWS SA v1.10,2013-03-03 16:35:00,
2013-03-03 11:40:00,41.1,30.1,29.55,North,354,1.7,3.0,65,-99.99,,,-99.99,PWS SA v1.10,2013-03-03 16:40:00,
2013-03-03 11:45:00,41.0,30.1,29.54,North,0,0.0,5.0,65,-99.99,,,-99.99,PWS SA v1.10,2013-03-03 16:45:00,
2013-03-03 11:50:00,41.5,30.7,29.55,NE,40,1.7,5.0,65,-99.99,,,-99.99,PWS SA v1.10,2013-03-03 16:50:00,
2013-03-03 11:55:00,41.1,29.9,29.54,NE,38,1.7,5.0,64,-99.99,,,-99.99,PWS SA v1.10,2013-03-03 16:55:00,
2013-03-03 12:00:00,42.0,30.6,29.55,NNE,30,1.7,5.0,64,-99.99,,,-99.99,PWS SA v1.10,2013-03-03 17:00:00,
2013-03-03 12:05:00,41.1,30.0,29.54,North,0,0.0,3.0,64,-99.99,,,-99.99,PWS SA v1.10,2013-03-03 17:05:00,
2013-03-03 12:10:00,41.9,31.0,29.54,North,0,0.0,5.0,66,-99.99,,,-99.99,PWS SA v1.10,2013-03-03 17:10:00,
2013-03-03 12:15:00,42.1,30.9,29.54,NNW,333,1.7,5.0,65,-99.99,,,-99.99,PWS SA v1.10,2013-03-03 17:15:00,
2013-03-03 12:20:00,41.6,30.4,29.54,North,353,1.7,5.0,64,-99.99,,,-99.99,PWS SA v1.10,2013-03-03 17:20:00,
2013-03-03 12:25:00,40.9,30.4,29.54,North,0,0.0,6.0,66,-99.99,,,-99.99,PWS SA v1.10,2013-03-03 17:25:00,
2013-03-03 12:30:00,41.7,30.9,29.54,North,7,3.4,6.0,66,-99.99,,,-99.99,PWS SA v1.10,2013-03-03 17:30:00,
2013-03-03 12:35:00,41.5,31.4,29.53,NNW,336,5.1,6.0,68,-99.99,,,-99.99,PWS SA v1.10,2013-03-03 17:35:00,
2013-03-03 12:40:00,41.0,31.5,29.53,West,265,3.4,5.0,69,-99.99,,,-99.99,PWS SA v1.10,2013-03-03 17:40:00,
2013-03-03 12:45:00,41.1,30.7,29.53,North,0,0.0,6.0,67,-99.99,,,-99.99,PWS SA v1.10,2013-03-03 17:45:00,
2013-03-03 12:50:00,41.1,30.6,29.52,NNE,27,3.4,6.0,66,-99.99,,,-99.99,PWS SA v1.10,2013-03-03 17:50:00,
2013-03-03 12:55:00,41.1,30.7,29.52,North,0,0.0,6.0,67,-99.99,,,-99.99,PWS SA v1.10,2013-03-03 17:55:00,
2013-03-03 13:00:00,41.0,30.4,29.52,NNE,24,1.7,6.0,66,-99.99,,,-99.99,PWS SA v1.10,2013-03-03 18:00:00,
2013-03-03 13:05:00,41.2,30.9,29.52,North,0,0.0,6.0,68,-99.99,,,-99.99,PWS SA v1.10,2013-03-03 18:05:00,
2013-03-03 13:10:00,41.2,30.8,29.52,North,0,0.0,5.0,67,-99.99,,,-99.99,PWS SA v1.10,2013-03-03 18:10:00,
2013-03-03 13:20:00,42.1,30.8,29.51,NW,325,6.8,6.8,65,-99.99,,,-99.99,PWS SA v1.10,2013-03-03 18:20:00,
2013-03-03 13:25:00,42.2,31.4,29.51,North,0,0.0,6.0,66,-99.99,,,-99.99,PWS SA v1.10,2013-03-03 18:25:00,
2013-03-03 13:30:00,42.6,31.9,29.51,NW,310,3.4,6.0,66,-99.99,,,-99.99,PWS SA v1.10,2013-03-03 18:30:00,
2013-03-03 13:35:00,42.8,30.9,29.51,North,0,0.0,5.0,63,-99.99,,,-99.99,PWS SA v1.10,2013-03-03 18:35:00,
2013-03-03 13:40:00,42.7,30.8,29.52,North,0,0.0,6.0,62,-99.99,,,-99.99,PWS SA v1.10,2013-03-03 18:40:00,
2013-03-03 13:45:00,42.7,31.2,29.52,North,0,0.0,6.0,64,-99.99,,,-99.99,PWS SA v1.10,2013-03-03 18:45:00,
2013-03-03 13:50:00,42.2,30.4,29.51,WNW,295,1.7,6.0,63,-99.99,,,-99.99,PWS SA v1.10,2013-03-03 18:50:00,
2013-03-03 14:00:00,42.2,31.6,29.51,North,0,0.0,3.0,66,-99.99,,,-99.99,PWS SA v1.10,2013-03-03 19:00:00,
2013-03-03 14:05:00,41.7,31.3,29.51,North,8,1.7,5.0,67,-99.99,,,-99.99,PWS SA v1.10,2013-03-03 19:05:00,
2013-03-03 14:10:00,41.9,31.3,29.52,NW,317,3.4,5.0,67,-99.99,,,-99.99,PWS SA v1.10,2013-03-03 19:10:00,
2013-03-03 14:15:00,42.0,30.9,29.51,NNE,32,1.7,6.0,65,-99.99,,,-99.99,PWS SA v1.10,2013-03-03 19:15:00,
2013-03-03 14:25:00,42.4,31.7,29.52,North,0,0.0,6.0,65,-99.99,,,-99.99,PWS SA v1.10,2013-03-03 19:25:00,
2013-03-03 14:30:00,42.5,32.3,29.52,WSW,249,3.4,5.0,67,-99.99,,,-99.99,PWS SA v1.10,2013-03-03 19:30:00,
2013-03-03 14:35:00,42.0,31.3,29.51,WNW,299,1.7,5.0,66,-99.99,,,-99.99,PWS SA v1.10,2013-03-03 19:35:00,
2013-03-03 14:40:00,42.4,31.6,29.51,North,0,0.0,5.0,67,-99.99,,,-99.99,PWS SA v1.10,2013-03-03 19:40:00,
2013-03-03 14:45:00,42.8,32.9,29.52,North,0,0.0,5.0,67,-99.99,,,-99.99,PWS SA v1.10,2013-03-03 19:45:00,
2013-03-03 14:50:00,42.6,32.2,29.51,North,0,0.0,5.0,67,-99.99,,,-99.99,PWS SA v1.10,2013-03-03 19:50:00,
2013-03-03 14:55:00,41.8,31.4,29.51,East,93,1.7,6.0,67,-99.99,,,-99.99,PWS SA v1.10,2013-03-03 19:55:00,
2013-03-03 15:00:00,42.0,31.5,29.51,NNE,20,5.1,6.0,67,-99.99,,,-99.99,PWS SA v1.10,2013-03-03 20:00:00,
2013-03-03 15:05:00,43.1,31.9,29.51,North,0,0.0,6.0,65,-99.99,,,-99.99,PWS SA v1.10,2013-03-03 20:05:00,
2013-03-03 15:15:00,42.1,31.2,29.51,North,0,0.0,5.0,65,-99.99,,,-99.99,PWS SA v1.10,2013-03-03 20:15:00,
2013-03-03 15:20:00,41.9,31.2,29.51,NW,309,1.7,5.0,66,-99.99,,,-99.99,PWS SA v1.10,2013-03-03 20:20:00,
2013-03-03 15:25:00,41.9,31.0,29.51,NNW,333,3.4,6.0,65,-99.99,,,-99.99,PWS SA v1.10,2013-03-03 20:25:00,
2013-03-03 15:30:00,41.6,31.2,29.51,NNW,334,5.1,6.0,67,-99.99,,,-99.99,PWS SA v1.10,2013-03-03 20:30:00,
2013-03-03 15:40:00,41.1,30.9,29.51,North,0,0.0,6.0,68,-99.99,,,-99.99,PWS SA v1.10,2013-03-03 20:40:00,
2013-03-03 15:45:00,41.2,31.3,29.51,NNE,32,1.7,6.0,68,-99.99,,,-99.99,PWS SA v1.10,2013-03-03 20:45:00,
2013-03-03 15:50:00,41.1,31.5,29.51,North,0,0.0,5.0,69,-99.99,,,-99.99,PWS SA v1.10,2013-03-03 20:50:00,
2013-03-03 15:55:00,40.8,31.5,29.51,NE,35,3.4,5.0,70,-99.99,,,-99.99,PWS SA v1.10,2013-03-03 20:55:00,
2013-03-03 16:00:00,40.7,31.7,29.52,North,0,0.0,5.0,71,-99.99,,,-99.99,PWS SA v1.10,2013-03-03 21:00:00,
2013-03-03 16:10:00,40.3,31.9,29.51,North,0,0.0,3.0,73,-99.99,,,-99.99,PWS SA v1.10,2013-03-03 21:10:00,
2013-03-03 16:15:00,40.0,31.6,29.51,North,0,0.0,3.0,72,-99.99,,,-99.99,PWS SA v1.10,2013-03-03 21:15:00,
2013-03-03 16:20:00,40.1,32.5,29.51,NW,317,3.4,3.4,75,-99.99,,,-99.99,PWS SA v1.10,2013-03-03 21:20:00,
2013-03-03 16:25:00,39.7,32.0,29.51,North,0,0.0,3.0,74,-99.99,,,-99.99,PWS SA v1.10,2013-03-03 21:25:00,
2013-03-03 16:30:00,39.7,33.0,29.52,North,0,0.0,3.0,78,-99.99,,,-99.99,PWS SA v1.10,2013-03-03 21:30:00,
2013-03-03 16:35:00,39.3,32.3,29.52,NE,51,3.4,3.4,76,-99.99,,,-99.99,PWS SA v1.10,2013-03-03 21:35:00,
2013-03-03 16:40:00,39.4,32.8,29.52,North,0,0.0,5.0,78,-99.99,,,-99.99,PWS SA v1.10,2013-03-03 21:40:00,
2013-03-03 16:45:00,39.3,33.0,29.52,North,0,0.0,5.0,79,-99.99,,,-99.99,PWS SA v1.10,2013-03-03 21:45:00,
2013-03-03 16:50:00,39.0,31.9,29.52,North,358,6.8,6.8,76,-99.99,,,-99.99,PWS SA v1.10,2013-03-03 21:50:00,
2013-03-03 16:55:00,38.5,31.8,29.52,North,0,0.0,6.0,77,-99.99,,,-99.99,PWS SA v1.10,2013-03-03 21:55:00,
2013-03-03 17:00:00,38.5,31.8,29.52,NW,309,3.4,6.0,78,-99.99,,,-99.99,PWS SA v1.10,2013-03-03 22:00:00,
2013-03-03 17:05:00,38.3,32.2,29.53,North,0,0.0,3.0,79,-99.99,,,-99.99,PWS SA v1.10,2013-03-03 22:05:00,
2013-03-03 17:10:00,38.1,32.6,29.53,North,0,0.0,6.0,81,-99.99,,,-99.99,PWS SA v1.10,2013-03-03 22:10:00,
2013-03-03 17:15:00,37.6,32.3,29.53,NNW,329,6.8,6.8,81,-99.99,,,-99.99,PWS SA v1.10,2013-03-03 22:15:00,
2013-03-03 17:20:00,37.2,32.1,29.53,NNW,338,1.7,6.0,82,-99.99,,,-99.99,PWS SA v1.10,2013-03-03 22:20:00,
2013-03-03 17:25:00,37.2,32.5,29.53,North,0,0.0,6.0,84,-99.99,,,-99.99,PWS SA v1.10,2013-03-03 22:25:00,
2013-03-03 17:30:00,37.0,32.7,29.53,SSE,156,1.7,3.0,84,-99.99,,,-99.99,PWS SA v1.10,2013-03-03 22:30:00,
2013-03-03 17:35:00,36.7,32.1,29.53,North,0,0.0,3.0,85,-99.99,,,-99.99,PWS SA v1.10,2013-03-03 22:35:00,
2013-03-03 17:40:00,36.6,32.6,29.53,NW,310,5.1,5.1,86,-99.99,,,-99.99,PWS SA v1.10,2013-03-03 22:40:00,
2013-03-03 17:45:00,36.2,32.2,29.54,North,0,0.0,6.0,86,-99.99,,,-99.99,PWS SA v1.10,2013-03-03 22:45:00,
2013-03-03 17:50:00,36.2,32.3,29.54,North,0,0.0,6.0,86,-99.99,,,-99.99,PWS SA v1.10,2013-03-03 22:50:00,
2013-03-03 17:55:00,36.1,32.4,29.54,North,0,0.0,6.0,88,-99.99,,,-99.99,PWS SA v1.10,2013-03-03 22:55:00,
2013-03-03 18:00:00,35.9,32.3,29.54,North,0,0.0,3.0,88,-99.99,,,-99.99,PWS SA v1.10,2013-03-03 23:00:00,
2013-03-03 18:05:00,35.7,32.4,29.54,North,0,0.0,6.0,88,-99.99,,,-99.99,PWS SA v1.10,2013-03-03 23:05:00,
2013-03-03 18:10:00,35.7,32.5,29.54,North,0,0.0,6.0,89,-99.99,,,-99.99,PWS SA v1.10,2013-03-03 23:10:00,
2013-03-03 18:15:00,35.6,32.6,29.54,West,270,1.7,6.0,90,-99.99,,,-99.99,PWS SA v1.10,2013-03-03 23:15:00,
2013-03-03 18:20:00,35.5,32.8,29.54,North,0,0.0,3.0,91,-99.99,,,-99.99,PWS SA v1.10,2013-03-03 23:20:00,
2013-03-03 18:25:00,35.4,32.8,29.54,WSW,249,1.7,3.0,91,-99.99,,,-99.99,PWS SA v1.10,2013-03-03 23:25:00,
2013-03-03 18:30:00,35.2,32.8,29.54,WSW,241,1.7,1.7,92,-99.99,,,-99.99,PWS SA v1.10,2013-03-03 23:30:00,
2013-03-03 18:35:00,35.2,32.7,29.54,North,0,0.0,3.0,92,-99.99,,,-99.99,PWS SA v1.10,2013-03-03 23:35:00,
2013-03-03 18:40:00,35.2,32.8,29.54,North,0,0.0,3.0,92,-99.99,,,-99.99,PWS SA v1.10,2013-03-03 23:40:00,
2013-03-03 18:45:00,35.2,32.7,29.55,North,0,0.0,3.0,91,-99.99,,,-99.99,PWS SA v1.10,2013-03-03 23:45:00,
2013-03-03 18:50:00,35.3,32.4,29.55,North,0,0.0,3.0,90,-99.99,,,-99.99,PWS SA v1.10,2013-03-03 23:50:00,
2013-03-03 18:55:00,35.2,32.5,29.54,North,0,0.0,3.0,90,-99.99,,,-99.99,PWS SA v1.10,2013-03-03 23:55:00,
2013-03-03 19:00:00,35.1,32.1,29.55,North,0,0.0,3.0,90,-99.99,,,-99.99,PWS SA v1.10,2013-03-04 00:00:00,
2013-03-03 19:05:00,35.2,32.4,29.54,North,0,0.0,3.0,90,-99.99,,,-99.99,PWS SA v1.10,2013-03-04 00:05:00,
2013-03-03 19:10:00,35.0,32.5,29.55,North,359,1.7,3.0,91,-99.99,,,-99.99,PWS SA v1.10,2013-03-04 00:10:00,
2013-03-03 19:15:00,34.8,32.1,29.55,WSW,256,1.7,3.0,91,-99.99,,,-99.99,PWS SA v1.10,2013-03-04 00:15:00,
2013-03-03 19:20:00,34.8,32.4,29.55,North,0,0.0,3.0,92,-99.99,,,-99.99,PWS SA v1.10,2013-03-04 00:20:00,
2013-03-03 19:25:00,34.6,32.6,29.55,North,0,0.0,3.0,93,-99.99,,,-99.99,PWS SA v1.10,2013-03-04 00:25:00,
2013-03-03 19:30:00,34.4,32.3,29.55,North,0,0.0,3.0,93,-99.99,,,-99.99,PWS SA v1.10,2013-03-04 00:30:00,
2013-03-03 19:35:00,34.4,32.7,29.55,North,0,0.0,3.0,94,-99.99,,,-99.99,PWS SA v1.10,2013-03-04 00:35:00,
2013-03-03 19:40:00,34.3,32.6,29.55,North,0,0.0,3.0,94,-99.99,,,-99.99,PWS SA v1.10,2013-03-04 00:40:00,
2013-03-03 19:45:00,34.1,32.3,29.55,NW,305,1.7,3.0,94,-99.99,,,-99.99,PWS SA v1.10,2013-03-04 00:45:00,
2013-03-03 19:50:00,34.3,32.8,29.55,West,260,3.4,5.0,95,-99.99,,,-99.99,PWS SA v1.10,2013-03-04 00:50:00,
2013-03-03 20:00:00,33.9,32.5,29.56,North,0,0.0,5.0,95,-99.99,,,-99.99,PWS SA v1.10,2013-03-04 01:00:00,
2013-03-03 20:05:00,34.0,32.8,29.55,North,0,0.0,3.0,95,-99.99,,,-99.99,PWS SA v1.10,2013-03-04 01:05:00,
2013-03-03 20:10:00,33.9,32.4,29.56,NNW,327,1.7,3.0,95,-99.99,,,-99.99,PWS SA v1.10,2013-03-04 01:10:00,
2013-03-03 20:15:00,34.0,32.7,29.55,North,0,0.0,3.0,96,-99.99,,,-99.99,PWS SA v1.10,2013-03-04 01:15:00,
2013-03-03 20:20:00,33.9,32.6,29.56,NNW,329,1.7,3.0,95,-99.99,,,-99.99,PWS SA v1.10,2013-03-04 01:20:00,
2013-03-03 20:25:00,33.8,32.2,29.56,North,355,5.1,5.1,95,-99.99,,,-99.99,PWS SA v1.10,2013-03-04 01:25:00,
2013-03-03 20:35:00,33.6,32.3,29.56,NNW,341,1.7,5.0,95,-99.99,,,-99.99,PWS SA v1.10,2013-03-04 01:35:00,
2013-03-03 20:40:00,33.6,32.3,29.56,NW,317,1.7,5.0,96,-99.99,,,-99.99,PWS SA v1.10,2013-03-04 01:40:00,
2013-03-03 20:50:00,33.8,32.5,29.56,NW,324,1.7,3.0,96,-99.99,,,-99.99,PWS SA v1.10,2013-03-04 01:50:00,
2013-03-03 20:55:00,33.8,32.5,29.56,NW,324,1.7,3.0,96,-99.99,,,-99.99,PWS SA v1.10,2013-03-04 01:55:00,
2013-03-03 21:00:00,33.4,32.3,29.56,NNW,333,1.7,3.0,96,-99.99,,,-99.99,PWS SA v1.10,2013-03-04 02:00:00,
2013-03-03 21:05:00,33.5,32.2,29.56,North,0,0.0,5.0,96,-99.99,,,-99.99,PWS SA v1.10,2013-03-04 02:05:00,
2013-03-03 21:10:00,33.2,31.8,29.56,North,0,0.0,5.0,95,-99.99,,,-99.99,PWS SA v1.10,2013-03-04 02:10:00,
2013-03-03 21:15:00,33.2,32.0,29.56,North,0,0.0,5.0,96,-99.99,,,-99.99,PWS SA v1.10,2013-03-04 02:15:00,
2013-03-03 21:20:00,33.2,31.6,29.56,North,0,0.0,3.0,95,-99.99,,,-99.99,PWS SA v1.10,2013-03-04 02:20:00,
2013-03-03 21:30:00,33.4,31.9,29.55,North,0,0.0,3.0,96,-99.99,,,-99.99,PWS SA v1.10,2013-03-04 02:30:00,
2013-03-03 21:35:00,33.2,31.6,29.56,North,0,0.0,3.0,95,-99.99,,,-99.99,PWS SA v1.10,2013-03-04 02:35:00,
2013-03-03 21:40:00,33.1,31.4,29.56,NW,320,1.7,3.0,95,-99.99,,,-99.99,PWS SA v1.10,2013-03-04 02:40:00,
2013-03-03 21:50:00,33.4,31.9,29.56,West,265,3.4,6.0,95,-99.99,,,-99.99,PWS SA v1.10,2013-03-04 02:50:00,
2013-03-03 21:55:00,33.2,31.5,29.55,North,0,0.0,6.0,94,-99.99,,,-99.99,PWS SA v1.10,2013-03-04 02:55:00,
2013-03-03 22:00:00,33.2,31.3,29.55,NNW,346,1.7,3.0,93,-99.99,,,-99.99,PWS SA v1.10,2013-03-04 03:00:00,
2013-03-03 22:05:00,33.2,31.1,29.55,North,0,0.0,1.0,93,-99.99,,,-99.99,PWS SA v1.10,2013-03-04 03:05:00,
2013-03-03 22:10:00,33.4,31.3,29.55,North,0,0.0,6.0,93,-99.99,,,-99.99,PWS SA v1.10,2013-03-04 03:10:00,
2013-03-03 22:15:00,33.4,31.3,29.55,North,0,0.0,6.0,93,-99.99,,,-99.99,PWS SA v1.10,2013-03-04 03:15:00,
2013-03-03 22:20:00,33.5,31.3,29.55,North,0,0.0,6.0,93,-99.99,,,-99.99,PWS SA v1.10,2013-03-04 03:20:00,
2013-03-03 22:25:00,33.2,30.8,29.55,North,0,0.0,3.0,92,-99.99,,,-99.99,PWS SA v1.10,2013-03-04 03:25:00,
2013-03-03 22:30:00,33.2,30.9,29.55,North,0,0.0,3.0,92,-99.99,,,-99.99,PWS SA v1.10,2013-03-04 03:30:00,
2013-03-03 22:35:00,33.4,31.0,29.55,North,0,0.0,1.0,92,-99.99,,,-99.99,PWS SA v1.10,2013-03-04 03:35:00,
2013-03-03 22:40:00,33.3,31.1,29.55,North,0,0.0,1.0,92,-99.99,,,-99.99,PWS SA v1.10,2013-03-04 03:40:00,
2013-03-03 22:45:00,33.2,30.8,29.55,North,0,0.0,0.0,92,-99.99,,,-99.99,PWS SA v1.10,2013-03-04 03:45:00,
2013-03-03 22:55:00,33.5,30.9,29.56,WNW,283,1.7,1.7,91,-99.99,,,-99.99,PWS SA v1.10,2013-03-04 03:55:00,
2013-03-03 23:00:00,33.5,30.8,29.55,North,0,0.0,1.0,91,-99.99,,,-99.99,PWS SA v1.10,2013-03-04 04:00:00,
2013-03-03 23:05:00,33.5,30.3,29.55,WSW,246,1.7,3.0,89,-99.99,,,-99.99,PWS SA v1.10,2013-03-04 04:05:00,
2013-03-03 23:10:00,33.5,29.9,29.55,North,0,0.0,3.0,87,-99.99,,,-99.99,PWS SA v1.10,2013-03-04 04:10:00,
2013-03-03 23:15:00,33.5,29.9,29.55,North,0,0.0,3.0,87,-99.99,,,-99.99,PWS SA v1.10,2013-03-04 04:15:00,
2013-03-03 23:20:00,33.5,29.9,29.55,North,0,0.0,1.0,87,-99.99,,,-99.99,PWS SA v1.10,2013-03-04 04:20:00,
2013-03-03 23:25:00,33.6,29.9,29.55,North,0,0.0,0.0,87,-99.99,,,-99.99,PWS SA v1.10,2013-03-04 04:25:00,
2013-03-03 23:30:00,33.6,29.6,29.55,SW,230,6.8,6.8,86,-99.99,,,-99.99,PWS SA v1.10,2013-03-04 04:30:00,
2013-03-03 23:40:00,33.8,29.2,29.55,North,0,0.0,6.0,84,-99.99,,,-99.99,PWS SA v1.10,2013-03-04 04:40:00,
2013-03-03 23:45:00,33.8,29.2,29.55,WNW,282,6.8,6.8,84,-99.99,,,-99.99,PWS SA v1.10,2013-03-04 04:45:00,
2013-03-03 23:50:00,33.6,28.5,29.55,North,0,0.0,6.0,82,-99.99,,,-99.99,PWS SA v1.10,2013-03-04 04:50:00,